Regional Weather Roundup
Issued by NWS

Home | Current Version | Previous Version | Text Only | Print | Product List | Glossary On
Versions: 1 2 3 4 5 6 7 8 9 10 11 12 13 14 15 16 17 18 19 20 21 22 23 24 25 26 27 28 29 30 31 32 33 34 35 36 37 38 39 40 41 42 43 44 45 46 47 48 49 50
935
ASUS43 KDTX 212010
RWRMI
MICHIGAN HOURLY REGIONAL WEATHER ROUNDUP
NATIONAL WEATHER SERVICE DETROIT/PONTIAC MI
ISSUED BY NATIONAL WEATHER SERVICE GRAND RAPIDS MI
300 PM EST TUE FEB 21 2017

NOTE: "FAIR" INDICATES FEW OR NO CLOUDS BELOW 12,000 FEET WITH NO
SIGNIFICANT WEATHER AND/OR OBSTRUCTION TO VISIBILITY.

MIZ047>049-052>055-059>063-066>070-074>076-081>083-212100-
SOUTHEAST LOWER MICHIGAN

CITY           SKY/WX    TMP DP  RH WIND       PRES   REMARKS
ADRIAN         CLOUDY    57  49  74 SW8       29.93F
ALMA           PTSUNNY   56  49  77 W14G21    29.90S
ANN ARBOR      CLOUDY    58  48  69 S7        29.92S
BAD AXE        CLOUDY    50  48  93 W5        29.89F FOG
DETROIT CITY   CLOUDY    55  44  66 SW7       29.94R
DETROIT        LGT RAIN  55  46  71 S6        29.94S
FLINT          CLOUDY    59  50  72 W9        29.90R
GROSSE ILE     CLOUDY    42  40  91 CALM      29.93R FOG
HILLSDALE      CLOUDY    57  50  77 SW5       29.91F
HOWELL         CLOUDY    61  50  66 W9        29.90S

CITY           SKY/WX    TMP DP  RH WIND       PRES   REMARKS
JACKSON        CLOUDY    61  51  70 W7        29.92R
LANSING        CLOUDY    60  52  74 W10       29.91S
MASON          CLOUDY    61  53  73 W12       29.91S
MONROE         CLOUDY    55  49  80 SW5       29.92F
MT. CLEMENS    CLOUDY    55  44  66 SW6       29.91R
PONTIAC        CLOUDY    56  50  80 SW7       29.90S
PORT HOPE        N/A     50  47  89 SW6       29.87S
PORT HURON     PTSUNNY   50  45  81 SW5       29.92R
TRI CITIES     CLOUDY    57  52  83 W17       29.89F
YPSILANTI      CLOUDY    57  47  69 S7        29.93S
$$
MIZ043>046-050>051-056>058-064>065-071>073-077>080-212100-
SOUTHWEST LOWER MICHIGAN

CITY           SKY/WX    TMP DP  RH WIND       PRES   REMARKS
BATTLE CREEK   CLOUDY    64  53  67 W14       29.91F
BENTON HARBOR  CLOUDY    54  50  86 W6        29.92F FOG
BIG RAPIDS     CLOUDY    56  45  65 W8        29.89R
COLDWATER      CLOUDY    59  52  76 SW9       29.92F
HOLLAND        CLOUDY    53  49  86 W5        29.92S
GRAND RAPIDS   CLOUDY    55  51  86 SW8       29.91S FOG
KALAMAZOO      CLOUDY    63  50  62 W10       29.92F
MARSHALL       CLOUDY    60  53  76 SW8       29.91F
MOUNT PLEASANT CLOUDY    57  49  73 W7        29.88S
MUSKEGON       PTSUNNY   55  46  71 W7        29.91F
STURGIS        CLOUDY    58  53  82 W5        29.92S
$$
MIZ016>042-212100-
NORTHERN LOWER MICHIGAN

CITY           SKY/WX    TMP DP  RH WIND       PRES   REMARKS
ALPENA         SUNNY     58  45  62 W9        29.84R
BEAVER ISLAND  SUNNY     49  40  72 SW10G17   29.84S
BELLAIRE       SUNNY     56  40  54 SW8       29.86S
CADILLAC       SUNNY     55  45  67 SW9       29.86S
CHARLEVOIX     SUNNY     53  40  63 SW13G20   29.88F
GAYLORD        SUNNY     55  36  48 W8        29.84S
HOUGHTON LAKE  CLOUDY    52  45  77 W5        29.87S
MANISTEE       SUNNY     52  42  69 W12       29.90R
OSCODA         CLOUDY    52  47  83 W14G22    29.85S
PELLSTON       SUNNY     50  39  66 W13       29.84S
TRAVERSE CITY  MOSUNNY   59  37  44 W6        29.85R
LUDINGTON      SUNNY     49  44  80 W7        29.90S
$$
MIZ007>008-015-212100-
EASTERN UPPER MICHIGAN

CITY           SKY/WX    TMP DP  RH WIND       PRES   REMARKS
KINROSS        CLOUDY    42  41  96 NE5       29.82R FOG
MACKINAC ISLAN FOG       40  40 100 W9        29.84R VSB<1/4 WCI  35
NEWBERRY       SUNNY     50  35  55 SW8       29.80R
S. S. MARIE    MOSUNNY   44  37  76 W6        29.81S
$$
MIZ004>006-011>014-085-212100-
CENTRAL UPPER MICHIGAN

CITY           SKY/WX    TMP DP  RH WIND       PRES   REMARKS
MANISTIQUE     SUNNY     50  39  66 S5        29.81F
ESCANABA       SUNNY     57  37  47 SE9       29.82F
MENOMINEE      SUNNY     58  37  45 VRB6      29.85F
SAWYER-GWINN   SUNNY     54  32  43 SW6G12    29.79F
$$
MIZ001>003-009>011-084-212100-
WESTERN UPPER MICHIGAN

CITY           SKY/WX    TMP DP  RH WIND       PRES   REMARKS
IRON MOUNTAIN  SUNNY     57  27  31 W8        29.80F
HOUGHTON       MOSUNNY   43  32  65 W12       29.76F
COPPER HARBOR    N/A     46  31  55 VRB7      29.75F
IRONWOOD       SUNNY     55  30  38 SW13      29.77F
$$

ABBREVIATIONS USED IN REMARKS
   TC - TEMPERATURE IN CELSIUS
  WCI - WIND CHILL INDEX
   HX - HEAT INDEX
  VSB - VISIBILITY





USA.gov is the U.S. government's official web portal to all federal, state and local government web resources and services.